Location: Newark
(13.8117°N, 3.6025°W)
Time: 16:12:34
(UTC+00:00)

Hubble Space Telescope - Pass Details

Date: 26 August 2019
Orbit: 536 x 540 km, 28.5° (Epoch: 16 September)

Event Time Altitude Azimuth Distance (km) Brightness Sun altitude
Rises 19:02:00 0° 303° (WNW) 2,665 5.9 -8.4°
Reaches altitude 10° 19:04:19 10° 309° (NW) 1,775 4.6 -9.0°
Maximum altitude 19:08:17 48° 24° (NNE) 700 1.3 -9.9°
Enters shadow 19:11:30 15° 96° (E) 1,494 2.4 -10.7°
